Zurück zum Katalog

FENGYUN 1C DEB

AktivPO
NORAD 36283·DEBRIS·🇨🇳 China

Gestartet May 10, 1999 von Taiyuan Satellite Launch Center

Loading…

Nächste Überflüge (nächste 24 Stunden)

TLE

AktuellSource: Space-Track

Epoche: Sep 14, 2026, 07:43 UTC

1 36283U 99025DXL 26257.32203735  .00019836  00000-0  83985-3 0  9997
2 36283  99.4200 293.0088 0046647 224.7611 134.9852 15.22241841708386

Verfolge FENGYUN 1C DEB in Echtzeit mit AllMySat

Download on the App Store